{"data":{"norad_id":44072,"epoch":"2026-09-20T03:59:55.565376Z","epoch_age_seconds":87072,"freshness":"FRESH","line1":"1 44072U 19015A   26263.16661534  .00000638  00000+0  83709-4 0  9991","line2":"2 44072  97.8716 336.5687 0001431  85.4233 274.7144 14.83669003406132","mean_motion":14.83669003,"eccentricity":0.0001431,"inclination_deg":97.8716,"raan_deg":336.5687,"arg_perigee_deg":85.4233,"mean_anomaly_deg":274.7144,"bstar":8.3709e-5,"rev_number":40613,"period_min":97.056688323898,"perigee_km":616.76563439443,"apogee_km":618.76786204717,"semimajor_km":6995.9037482208,"source":"CELESTRAK","updated_at":"2026-09-20T09:00:14.452392Z"}}